Weather History for Mobridge, SD

Change the Weather History Date:

Wednesday, September 18, 2013

  Actual Average Record
Temperature  
Mean Temperature 73 °F 60 °F  
Max Temperature 84 °F 73 °F 100 °F (1933)
Min Temperature 61 °F 47 °F 28 °F (1991)
Degree Days  
Heating Degree Days 0 7  
Month to date heating degree days 15 78  
Since 1 July heating degree days 28 111  
Cooling Degree Days 8 1  
Month to date cooling degree days 106 52  
Year to date cooling degree days 690 633  
Growing Degree Days 22 (Base 50)    
Moisture  
Dew Point 62 °F    
Average Humidity 74    
Maximum Humidity 100    
Minimum Humidity 47    
Precipitation  
Precipitation 0.21 in 0.05 in 1.82 in (1946)
Month to date precipitation 2.96 0.91  
Year to date precipitation 16.78 14.82  
Sea Level Pressure  
Sea Level Pressure 29.59 in    
Wind  
Wind Speed 9 mph (ENE)    
Max Wind Speed 39 mph    
Max Gust Speed 52 mph    
Visibility 7 miles    
Events Rain , Thunderstorm    
T = Trace of Precipitation, MM = Missing Value Source: NWS Daily Summary

Daily Weather History Graph

Daily Weather History Graph

Search for Another Location

Airport:

Trip Planner

Search our weather history database for the weather conditions in past years. The results will help you decide how hot, cold, wet, or windy it might be!

Date:

Astronomy

Sep. 18, 2013 Rise Set
Actual Time 7:24 AM CDT 7:46 PM CDT
Civil Twilight 6:54 AM CDT 8:15 PM CDT
Nautical Twilight 6:19 AM CDT 8:50 PM CDT
Astronomical Twilight 5:43 AM CDT 9:26 PM CDT
Moon 7:09 PM CDT (9/18) 6:27 AM CDT (9/18)
Length of Visible Light 13h 21m
Length of Day
12h 22m
Waxing Gibbous, 99% of the Moon is Illuminated
Sep 18
Waxing Gibbous
Sep 19
Full
Sep 26
Last Quarter
Oct 4
New
Oct 11
First Quarter

Hourly Weather History & Observations

Time (CDT) Temp. Heat Index Dew Point Humidity Pressure Visibility Wind Dir Wind Speed Gust Speed Precip Events Conditions
12:52 AM 62.1 °F - 60.1 °F 93% 29.65 in 10.0 mi SE 9.2 mph - N/A   Clear
1:52 AM 62.1 °F - 61.0 °F 96% 29.63 in 10.0 mi SE 10.4 mph - N/A   Clear
2:16 AM 62.6 °F - 60.8 °F 94% 29.65 in 10.0 mi ESE 8.1 mph - N/A   Partly Cloudy
2:33 AM 62.6 °F - 60.8 °F 94% 29.68 in 10.0 mi NNW 3.5 mph 21.9 mph N/A   Mostly Cloudy
2:52 AM 63.0 °F - 61.0 °F 93% 29.68 in 10.0 mi NNW 12.7 mph - N/A   Overcast
3:27 AM 62.6 °F - 60.8 °F 94% 29.65 in 9.0 mi NE 11.5 mph - 0.00 in Rain , Thunderstorm Light Rain
3:42 AM 62.6 °F - 60.8 °F 94% 29.63 in 8.0 mi ENE 13.8 mph 17.3 mph 0.00 in Thunderstorm Overcast
3:52 AM 63.0 °F - 61.0 °F 93% 29.61 in 8.0 mi NE 12.7 mph - 0.00 in Thunderstorm Overcast
4:03 AM 62.6 °F - 62.6 °F 100% 29.64 in 8.0 mi ENE 10.4 mph - N/A   Overcast
4:52 AM 62.1 °F - 62.1 °F 100% 29.60 in 5.0 mi ENE 12.7 mph - 0.05 in   Overcast
5:09 AM 62.6 °F - 62.6 °F 100% 29.61 in 2.5 mi ENE 11.5 mph 18.4 mph N/A   Overcast
5:52 AM 63.0 °F - 63.0 °F 100% 29.57 in 2.0 mi East 15.0 mph - N/A   Overcast
6:52 AM 64.0 °F - 63.0 °F 96% 29.57 in 1.8 mi East 12.7 mph - N/A   Overcast
7:12 AM 64.4 °F - 64.4 °F 100% 29.60 in 2.0 mi East 11.5 mph - N/A   Overcast
7:26 AM 64.4 °F - 64.4 °F 100% 29.59 in 1.8 mi East 11.5 mph - N/A   Overcast
7:52 AM 64.0 °F - 64.0 °F 100% 29.58 in 1.5 mi East 9.2 mph - N/A   Overcast
8:06 AM 64.4 °F - 64.4 °F 100% 29.58 in 2.5 mi ESE 9.2 mph - N/A   Overcast
8:13 AM 64.4 °F - 64.4 °F 100% 29.58 in 2.5 mi ESE 6.9 mph - N/A   Overcast
8:37 AM 66.2 °F - 66.2 °F 100% 29.60 in 2.5 mi SSE 3.5 mph - N/A   Overcast
8:47 AM 66.2 °F - 64.4 °F 94% 29.59 in 3.0 mi SE 5.8 mph - N/A   Overcast
8:52 AM 66.9 °F - 64.9 °F 93% 29.57 in 3.0 mi SE 6.9 mph - N/A   Overcast
9:43 AM 68.0 °F - 66.2 °F 94% 29.56 in 6.0 mi SSE 11.5 mph - N/A   Mostly Cloudy
9:52 AM 69.1 °F - 66.0 °F 90% 29.55 in 7.0 mi SSE 10.4 mph - N/A   Mostly Cloudy
10:18 AM 71.6 °F - 66.2 °F 83% 29.56 in 9.0 mi SSE 10.4 mph - N/A   Partly Cloudy
10:52 AM 73.9 °F - 66.0 °F 76% 29.53 in - SSE 10.4 mph - N/A   Clear
11:52 AM 77.0 °F - 66.0 °F 69% 29.55 in 10.0 mi North - - N/A   Partly Cloudy
12:52 PM 75.9 °F - 64.9 °F 69% 29.55 in 10.0 mi WSW 5.8 mph - N/A   Clear
1:52 PM 81.0 °F 82.7 °F 64.9 °F 58% 29.54 in 10.0 mi Variable 3.5 mph - N/A   Clear
2:52 PM 81.0 °F 82.7 °F 64.9 °F 58% 29.54 in 10.0 mi WNW 10.4 mph - N/A   Clear
3:52 PM 82.0 °F 83.4 °F 64.0 °F 54% 29.54 in 10.0 mi NNW 8.1 mph - N/A   Clear
4:52 PM 82.9 °F 83.7 °F 62.1 °F 49% 29.53 in 10.0 mi WNW 4.6 mph - N/A   Clear
5:52 PM 82.9 °F 83.3 °F 61.0 °F 47% 29.53 in 10.0 mi Calm Calm - N/A   Clear
6:52 PM 75.0 °F - 64.9 °F 71% 29.53 in 10.0 mi North 3.5 mph - N/A   Clear
7:45 PM 73.4 °F - 64.4 °F 73% 29.58 in 10.0 mi North 10.4 mph - N/A Thunderstorm Partly Cloudy
7:52 PM 72.0 °F - 63.0 °F 73% 29.57 in 10.0 mi North 9.2 mph - N/A Thunderstorm Scattered Clouds
8:23 PM 62.6 °F - 60.8 °F 94% 29.72 in 2.5 mi West 31.1 mph 51.8 mph 0.05 in Rain , Thunderstorm Thunderstorms and Rain
8:32 PM 62.6 °F - 60.8 °F 94% 29.65 in 3.0 mi NNW 29.9 mph 47.2 mph 0.11 in Rain , Thunderstorm Heavy Thunderstorms and Rain
8:52 PM 64.0 °F - 57.9 °F 80% 29.60 in 10.0 mi NNE 9.2 mph 26.5 mph 0.12 in Rain Light Rain
9:34 PM 64.4 °F - 57.2 °F 77% 29.59 in 10.0 mi NE 15.0 mph - 0.00 in Thunderstorm Mostly Cloudy
9:52 PM 64.9 °F - 57.9 °F 78% 29.60 in 7.0 mi East 12.7 mph - 0.04 in Rain , Thunderstorm Heavy Thunderstorms and Rain
10:26 PM 66.2 °F - 55.4 °F 68% 29.60 in 10.0 mi Calm Calm - 0.00 in   Clear
10:52 PM 61.0 °F - 57.0 °F 87% 29.58 in 10.0 mi NW 6.9 mph - 0.00 in   Clear
11:52 PM 62.1 °F - 59.0 °F 90% 29.63 in 10.0 mi WNW 11.5 mph - N/A   Scattered Clouds